Overview Statistics Trail Chart Weather Telemetry Raw packets
 

This is the latest recevied weather packets stored in our database for station/object SV1RVP-13. If no packets are shown the sender has not sent any weather packets the latest 10 day(s).

<< 35 36 37 38 39 40 41 >>
Time Temp. Humidity Pressure Rain* Wind** Luminosity Snow
1788154717 27.78° C 55% 1015.1 hPa 0 mm - - -
1788154105 27.78° C 56% 1015 hPa 0 mm - - -
1788153525 27.22° C 55% 1015 hPa 0 mm - - -
1788152928 27.22° C 57% 1015 hPa 0 mm - - -
1788152318 27.22° C 60% 1015 hPa 0 mm - - -
1788151707 26.67° C 61% 1014.8 hPa 0 mm - - -
1788151109 26.67° C 64% 1014.8 hPa 0 mm - - -
1788150531 26.67° C 64% 1014.7 hPa 0 mm - - -
1788149921 26.67° C 65% 1014.6 hPa 0 mm - - -
1788149320 26.11° C 65% 1014.8 hPa 0 mm - - -
1788148709 26.11° C 66% 1014.6 hPa 0 mm - - -
1788148116 26.11° C 62% 1014.7 hPa 0 mm - - -
1788147516 26.11° C 61% 1014.7 hPa 0 mm - - -
1788146916 26.11° C 61% 1014.8 hPa 0 mm - - -
1788146310 26.11° C 61% 1014.7 hPa 0 mm - - -
1788145714 26.67° C 61% 1014.8 hPa 0 mm - - -
1788145122 26.67° C 60% 1014.7 hPa 0 mm - - -
1788144508 26.67° C 59% 1014.7 hPa 0 mm - - -
1788143905 26.67° C 59% 1014.6 hPa 0 mm - - -
1788143309 26.67° C 59% 1014.6 hPa 0 mm - - -
1788142744 26.67° C 59% 1014.5 hPa 0 mm - - -
1788142108 26.67° C 58% 1014.5 hPa 0 mm - - -
1788141519 26.67° C 58% 1014.6 hPa 0 mm - - -
1788140920 26.67° C 59% 1014.6 hPa 0 mm - - -
1788140313 26.67° C 60% 1014.6 hPa 0 mm - - -

* Rain since midnight (hover to see other rain measurements)
** Current wind speed in m/s (hover to see current wind gust speed)